[[{"header":{"parameterUnit":"m.s-1","parameterCategory":2,"la1":30.2991,"la2":30.254,"lo1":-89.0895,"lo2":-89.0444,"dy":0.0017,"dx":0.0017,"nx":28,"ny":28,"refTime":"2023-03-27T15:00:00:Z","depth":"0","parameterNumber":2,"parameterNumberName":"U-component_of_CURRENTS"},"data":[0,0,0,0,0,0,0,0,0,0,0,0,0,0,0,0,0,0,0,0,0,0,0,0,0,0,0,0,0,0,0,0,0,0,0,0,0,0,0,0,0,0,0,0,0,0,0,0,0,0,0,0,0,0,0,0,0,0,0.2588,0.2587,0,0.2452,0.2451,0.2449,0.2424,0.2426,0.2427,0.2428,0.2328,0.2325,0.2321,0,0,0,0,0,0,0,0,0,0,0,0,0,0.285,0.2846,0.2588,0.2587,0.2585,0.2453,0.2451,0.2449,0.2424,0.2426,0.2427,0.2428,0.233,0.2325,0.2321,0,0,0,0,0,0,0,0,0,0,0,0,0,0.2728,0.2844,0.2589,0.2556,0.2552,0.2453,0.2451,0.2448,0.2424,0.2426,0.2427,0.2429,0.2331,0.2326,0.232,0.2256,0,0,0.2304,0.2302,0,0,0,0,0,0,0,0,0.2735,0.2719,0.2563,0.2558,0.2553,0.2456,0.2507,0.2386,0.2424,0.2473,0.2428,0.2429,0.2373,0.2364,0.2336,0.2251,0.2247,0.2304,0.23,0.2298,0.2296,0,0,0,0,0,0,0,0.2744,0.2725,0.2535,0.2561,0.2555,0.2556,0.254,0.2484,0.2418,0.2469,0.2467,0.245,0.2371,0.2341,0.2333,0.2246,0.2304,0.2299,0.2296,0.2293,0.2152,0.2152,0,0,0,0,0,0,0.2755,0.2732,0.254,0.2531,0.2649,0.255,0.2532,0.2486,0.2417,0.2408,0.2449,0.2449,0.2349,0.234,0.233,0.227,0.2298,0.2293,0.229,0.2153,0.2152,0.2151,0,0,0,0,0,0,0.276,0.2738,0.2545,0.2631,0.2606,0.2543,0.2492,0.2483,0.2452,0.2401,0.2393,0.2428,0.235,0.2337,0.2277,0.2266,0.229,0.2286,0.2153,0.2152,0.2152,0.2138,0,0,0,0,0,0,0.2768,0.274,0.2707,0.263,0.2601,0.2483,0.249,0.2479,0.2439,0.2438,0.238,0.2372,0.2351,0.2285,0.2272,0.2259,0.2281,0.2154,0.2153,0.2152,0.214,0.2137,0.2135,0,0,0,0,0,0.2777,0.2725,0.2706,0.2683,0.2558,0.2482,0.2467,0.243,0.2436,0.2411,0.2378,0.2374,0.2271,0.2279,0.2264,0.225,0.2154,0.2153,0.2152,0.214,0.2138,0.2135,0,0,0,0,0,0,0.283,0.2715,0.2693,0.261,0.2551,0.2477,0.2446,0.2424,0.2375,0.2379,0.2346,0.2334,0.2284,0.2264,0.2274,0.221,0.222,0.2216,0.2217,0.2214,0.2212,0.2216,0.2277,0,0,0,0,0,0.2822,0.2747,0.2662,0.2598,0.2568,0.2508,0.2472,0.2445,0.2393,0.2373,0.2333,0.2299,0.2264,0.2238,0.2201,0.2144,0.2167,0.2134,0.2132,0.213,0.2125,0.2161,0.2162,0.2148,0.2148,0.2148,0,0,0.2827,0.2754,0.2713,0.2604,0.2557,0.2492,0.249,0.2431,0.2382,0.2368,0.2296,0.2282,0.2248,0.2198,0.2175,0.2179,0.2146,0.2129,0.2127,0.2123,0.216,0.2162,0.2163,0.2147,0.2147,0.2147,0,0,0.2797,0.2734,0.2663,0.2607,0.2525,0.2482,0.2466,0.2387,0.2361,0.2287,0.2283,0.226,0.2181,0.2167,0.2149,0.2109,0.2136,0.2106,0.209,0.2125,0.2127,0.2129,0.2165,0.217,0.2103,0.2103,0.2103,0,0.2813,0.2698,0.2638,0.2564,0.2515,0.2477,0.241,0.2367,0.2283,0.2258,0.2265,0.2189,0.2167,0.2123,0.2121,0.2103,0.2134,0.2101,0.2124,0.2126,0.2128,0.2165,0.2171,0.2102,0.2102,0.2102,0.2103,0,0.2723,0.2642,0.2603,0.2487,0.2434,0.2371,0.2308,0.2262,0.2236,0.22,0.2155,0.2135,0.21,0.2097,0.2091,0.2092,0.2113,0.2122,0.2134,0.2129,0.2168,0.2174,0.2101,0.2101,0.2102,0.2102,0,0,0.2715,0.2567,0.2552,0.2492,0.2387,0.2332,0.2262,0.2182,0.2146,0.2103,0.2065,0.2031,0.2053,0.2036,0.2045,0.2073,0.2121,0.2106,0.2109,0.2148,0.221,0.2179,0.2184,0.2145,0.2146,0.2146,0.2233,0,0.266,0.2527,0.2461,0.2346,0.2271,0.2222,0.2159,0.2097,0.2064,0.2023,0.2028,0.2001,0.202,0.2025,0.2054,0.2099,0.2137,0.2097,0.2203,0.2205,0.2184,0.2189,0.2053,0.2115,0.224,0.2241,0.2242,0,0.2571,0.2493,0.238,0.2261,0.2228,0.2167,0.2077,0.2019,0.1973,0.1956,0.195,0.1959,0.1977,0.2013,0.2093,0.2072,0.2142,0.2187,0.2192,0.217,0.2186,0.2137,0.2122,0.1937,0.2252,0.2251,0.225,0,0.2567,0.2426,0.234,0.2295,0.2169,0.2123,0.2069,0.2004,0.1961,0.1937,0.1924,0.194,0.196,0.2039,0.2119,0.2121,0.2225,0.2239,0.2276,0.2275,0.218,0.2169,0.1999,0.2316,0.2316,0.2316,0.2315,0,0.2505,0.2425,0.2335,0.2282,0.2188,0.2118,0.2039,0.199,0.1946,0.1904,0.1911,0.1903,0.1976,0.203,0.2117,0.2206,0.2227,0.2273,0.2293,0.2171,0.2158,0.201,0.1967,0.2319,0.2318,0.2318,0.2317,0,0.2476,0.2417,0.2312,0.2209,0.2174,0.2114,0.2015,0.1965,0.1936,0.1891,0.1889,0.189,0.1958,0.2029,0.2152,0.2196,0.2199,0.2323,0.2171,0.217,0.2019,0.1983,0.1907,0.1878,0.2373,0.2373,0.2373,0,0.2427,0.2382,0.2283,0.2234,0.218,0.2094,0.2032,0.1966,0.1922,0.1883,0.1865,0.1906,0.1927,0.2068,0.2156,0.2279,0.2187,0.2206,0.2178,0.1979,0.1955,0.1916,0.1895,0.2056,0.2053,0.2051,0.2049,0,0.2358,0.235,0.2286,0.2203,0.213,0.2045,0.1964,0.193,0.1866,0.1842,0.1838,0.1861,0.196,0.1995,0.2111,0.2169,0.2023,0.2164,0.1988,0.1712,0.1629,0.1619,0.2035,0.2028,0.203,0.2032,0.2033,0.2034,0.2326,0.2286,0.2236,0.2151,0.2077,0.2001,0.1932,0.1877,0.1822,0.1758,0.1802,0.1798,0.1797,0.1946,0.1971,0.1833,0.1957,0.1734,0.172,0.1708,0.1618,0.199,0.1985,0.1987,0.1988,0.1989,0.1991,0,0.2266,0.224,0.2176,0.2078,0.2,0.1971,0.1876,0.1807,0.175,0.1721,0.1709,0.1653,0.16,0.158,0.1491,0.1372,0.1361,0.1259,0.1119,0.114,0.1467,0.1382,0.1206,0.1206,0.1206,0.1206,0.1206,0.1206,0.2232,0.2172,0.2148,0.2021,0.196,0.1827,0.1775,0.1693,0.1645,0.1544,0.1491,0.148,0.136,0.1083,0.0848,0.0831,0.0735,0.0693,0.0747,0.0866,0.0906,0.0944,0.0846,0.056,0.056,0.0349,0.0347,0.0345]},{"header":{"parameterUnit":"m.s-1","parameterCategory":2,"la1":30.2991,"la2":30.254,"lo1":-89.0895,"lo2":-89.0444,"dy":0.0017,"dx":0.0017,"nx":28,"ny":28,"refTime":"2023-03-27T15:00:00:Z","depth":"0","parameterNumber":3,"parameterNumberName":"V-component_of_CURRENTS"},"data":[0,0,0,0,0,0,0,0,0,0,0,0,0,0,0,0,0,0,0,0,0,0,0,0,0,0,0,0,0,0,0,0,0,0,0,0,0,0,0,0,0,0,0,0,0,0,0,0,0,0,0,0,0,0,0,0,0,0,-0.0427,-0.0426,0,-0.0398,-0.0398,-0.0397,-0.0374,-0.0374,-0.0374,-0.0374,-0.0313,-0.0311,-0.031,0,0,0,0,0,0,0,0,0,0,0,0,0,-0.0406,-0.0406,-0.0427,-0.0426,-0.0426,-0.0398,-0.0398,-0.0397,-0.0374,-0.0374,-0.0374,-0.0374,-0.0313,-0.0311,-0.0309,0,0,0,0,0,0,0,0,0,0,0,0,0,-0.0398,-0.0407,-0.0427,-0.0413,-0.0412,-0.0398,-0.0398,-0.0397,-0.0374,-0.0374,-0.0374,-0.0374,-0.0314,-0.0311,-0.0309,-0.0296,0,0,-0.0302,-0.0301,0,0,0,0,0,0,0,0,-0.0398,-0.0399,-0.0415,-0.0414,-0.0413,-0.0391,-0.0368,-0.0362,-0.0374,-0.0386,-0.0374,-0.0374,-0.0337,-0.0333,-0.0325,-0.0293,-0.029,-0.0302,-0.03,-0.0299,-0.0298,0,0,0,0,0,0,0,-0.0399,-0.0399,-0.0413,-0.0415,-0.0413,-0.0389,-0.0389,-0.0366,-0.036,-0.0385,-0.0384,-0.0384,-0.0336,-0.0328,-0.0324,-0.0289,-0.0302,-0.0299,-0.0298,-0.0297,-0.0221,-0.022,0,0,0,0,0,0,-0.041,-0.04,-0.0414,-0.0413,-0.0407,-0.039,-0.0389,-0.0397,-0.0361,-0.0357,-0.0384,-0.0383,-0.0332,-0.0326,-0.0321,-0.028,-0.0299,-0.0297,-0.0295,-0.0221,-0.022,-0.022,0,0,0,0,0,0,-0.041,-0.0412,-0.0415,-0.0407,-0.0406,-0.0391,-0.0399,-0.0396,-0.0389,-0.0361,-0.0356,-0.0381,-0.0332,-0.0325,-0.0293,-0.0278,-0.0296,-0.0294,-0.0222,-0.0221,-0.022,-0.0211,0,0,0,0,0,0,-0.0409,-0.0412,-0.042,-0.0408,-0.0407,-0.0409,-0.04,-0.0396,-0.039,-0.0388,-0.0356,-0.0351,-0.0331,-0.0296,-0.029,-0.0275,-0.0292,-0.0223,-0.0221,-0.022,-0.0212,-0.021,-0.0209,0,0,0,0,0,-0.0409,-0.0427,-0.0421,-0.0423,-0.0419,-0.0409,-0.0406,-0.0394,-0.039,-0.0387,-0.0358,-0.0352,-0.0285,-0.0294,-0.0287,-0.0271,-0.0223,-0.0222,-0.022,-0.0213,-0.0211,-0.0209,0,0,0,0,0,0,-0.0435,-0.0426,-0.0419,-0.0438,-0.0423,-0.0406,-0.0409,-0.0396,-0.0372,-0.037,-0.0342,-0.0333,-0.03,-0.0288,-0.0299,-0.0246,-0.0254,-0.0251,-0.0251,-0.0248,-0.0246,-0.0241,-0.029,0,0,0,0,0,-0.0442,-0.0445,-0.0433,-0.0446,-0.0443,-0.0424,-0.0419,-0.0407,-0.0386,-0.0377,-0.035,-0.0321,-0.0289,-0.0272,-0.0246,-0.0217,-0.0216,-0.0204,-0.0202,-0.02,-0.0191,-0.0186,-0.0183,-0.0215,-0.0215,-0.0215,0,0,-0.0455,-0.0452,-0.0454,-0.0449,-0.044,-0.0422,-0.0421,-0.0415,-0.0388,-0.0373,-0.0333,-0.0315,-0.0281,-0.0244,-0.0229,-0.0232,-0.019,-0.0198,-0.0197,-0.0188,-0.0185,-0.0182,-0.0179,-0.0214,-0.0215,-0.0215,0,0,-0.0474,-0.0481,-0.0481,-0.0467,-0.0452,-0.0433,-0.0432,-0.041,-0.039,-0.0353,-0.0332,-0.0302,-0.0259,-0.0226,-0.0205,-0.0177,-0.0182,-0.0176,-0.0157,-0.0153,-0.0151,-0.0148,-0.0144,-0.0142,-0.0173,-0.0173,-0.0173,0,-0.0489,-0.0483,-0.048,-0.047,-0.0451,-0.0436,-0.0416,-0.0395,-0.0359,-0.0334,-0.034,-0.0267,-0.0244,-0.0187,-0.0177,-0.0171,-0.0176,-0.0169,-0.0151,-0.0149,-0.0147,-0.0143,-0.0141,-0.0173,-0.0173,-0.0173,-0.0173,0,-0.0493,-0.0484,-0.0487,-0.0456,-0.0438,-0.0425,-0.039,-0.0365,-0.0341,-0.0312,-0.0262,-0.0234,-0.0189,-0.0181,-0.0166,-0.0133,-0.0143,-0.0153,-0.0159,-0.0143,-0.014,-0.0138,-0.0172,-0.0172,-0.0172,-0.0172,0,0,-0.0527,-0.0493,-0.0491,-0.0461,-0.0426,-0.0406,-0.0364,-0.0313,-0.0276,-0.0249,-0.0201,-0.0154,-0.015,-0.0126,-0.0113,-0.0107,-0.0096,-0.0124,-0.0124,-0.0123,-0.0093,-0.0057,-0.0051,-0.0112,-0.0111,-0.0111,-0.0098,0,-0.0522,-0.0493,-0.0474,-0.0426,-0.04,-0.0364,-0.0321,-0.0273,-0.0236,-0.0189,-0.016,-0.0117,-0.0126,-0.0109,-0.0102,-0.0091,-0.0089,-0.0098,-0.0105,-0.0105,-0.0078,-0.0046,0.0057,0.008,-0.0096,-0.0095,-0.0095,0,-0.0515,-0.0493,-0.0452,-0.0386,-0.0372,-0.0341,-0.0261,-0.0222,-0.0159,-0.0134,-0.0098,-0.0081,-0.0044,-0.0071,-0.0051,-0.0061,-0.0075,-0.0079,-0.0079,-0.0044,-0.0063,0.0037,0.0092,0.0098,-0.0091,-0.0091,-0.0092,0,-0.0507,-0.0465,-0.0426,-0.0406,-0.0342,-0.031,-0.027,-0.0205,-0.0161,-0.0104,-0.0076,-0.004,-0.0018,-0.0028,-0.0024,-0.0045,-0.0014,-0.0045,-0.0026,-0.0025,0.0066,0.0075,0.0127,-0.0044,-0.0044,-0.0045,-0.0045,0,-0.0487,-0.045,-0.0421,-0.0395,-0.0339,-0.0301,-0.0235,-0.0191,-0.0133,-0.0075,-0.0055,-0.0008,-0.0012,0.001,-0.0007,0.0009,-0.0001,-0.0008,-0.0011,0.0072,0.0081,0.0092,0.0066,-0.0044,-0.0044,-0.0044,-0.0044,0,-0.0456,-0.0445,-0.0395,-0.0347,-0.033,-0.0286,-0.0216,-0.0167,-0.0125,-0.0052,-0.0035,0.0018,0.0059,0.0062,0.0063,0.0042,0.0077,0.0046,0.0148,0.0157,0.0173,0.0144,0.0189,0.0226,0.0068,0.0069,0.007,0,-0.0424,-0.0402,-0.0365,-0.034,-0.0314,-0.0258,-0.0213,-0.0163,-0.0111,-0.0027,0.0013,0.0068,0.0142,0.017,0.0175,0.0177,0.0143,0.0219,0.0202,0.0208,0.0171,0.0148,0.0174,0.0321,0.0324,0.0326,0.0328,0,-0.0354,-0.0356,-0.0322,-0.029,-0.025,-0.0199,-0.0138,-0.0099,-0.0031,0.0035,0.0133,0.0194,0.0253,0.0341,0.0336,0.0321,0.0271,0.0265,0.0255,0.037,0.0366,0.039,0.0265,0.0349,0.0347,0.0345,0.0344,0.0343,-0.0299,-0.0271,-0.0249,-0.0211,-0.0177,-0.0124,-0.0067,-0.0003,0.009,0.0206,0.0235,0.0356,0.045,0.0495,0.0467,0.0488,0.042,0.0476,0.0437,0.041,0.0464,0.0384,0.0469,0.0468,0.0467,0.0465,0.0465,0,-0.0215,-0.0195,-0.0162,-0.0115,-0.0071,-0.0073,0.0004,0.0065,0.0186,0.0281,0.0386,0.055,0.0664,0.0681,0.0723,0.0679,0.0659,0.0637,0.0638,0.0653,0.0587,0.0618,0.076,0.076,0.076,0.076,0.076,0.076,-0.0162,-0.0112,-0.0105,-0.002,0.0007,0.0075,0.012,0.0197,0.0271,0.0421,0.0529,0.0601,0.0695,0.0765,0.0794,0.0777,0.0752,0.0749,0.0687,0.0643,0.0625,0.0608,0.0633,0.0776,0.0776,0.0827,0.0827,0.0828]}],[{"header":{"parameterUnit":"m.s-1","parameterCategory":2,"la1":30.2991,"la2":30.254,"lo1":-89.0895,"lo2":-89.0444,"dy":0.0017,"dx":0.0017,"nx":28,"ny":28,"refTime":"2023-03-27T15:00:00:Z","depth":"2","parameterNumber":2,"parameterNumberName":"U-component_of_CURRENTS"},"data":[0,0,0,0,0,0,0,0,0,0,0,0,0,0,0,0,0,0,0,0,0,0,0,0,0,0,0,0,0,0,0,0,0,0,0,0,0,0,0,0,0,0,0,0,0,0,0,0,0,0,0,0,0,0,0,0,0,0,0.161,0.161,0,0.1597,0.1596,0.1595,0.1587,0.1588,0.1588,0.1589,0.1537,0.1536,0.1534,0,0,0,0,0,0,0,0,0,0,0,0,0,0.1582,0.1582,0.161,0.161,0.1611,0.1597,0.1596,0.1595,0.1587,0.1588,0.1588,0.1589,0.1538,0.1536,0.1534,0,0,0,0,0,0,0,0,0,0,0,0,0,0.1579,0.1582,0.161,0.1608,0.1608,0.1597,0.1596,0.1595,0.1587,0.1588,0.1589,0.1589,0.1538,0.1536,0.1533,0.1506,0,0,0.1525,0.1524,0,0,0,0,0,0,0,0,0.1579,0.158,0.1608,0.1609,0.1609,0.1598,0.1567,0.1565,0.1587,0.159,0.1589,0.1589,0.1557,0.1553,0.1543,0.1503,0.1501,0.1525,0.1524,0.1522,0.1522,0,0,0,0,0,0,0,0.158,0.158,0.16,0.1609,0.1609,0.1592,0.1593,0.1566,0.1566,0.159,0.1591,0.1596,0.1556,0.1545,0.1541,0.15,0.1525,0.1523,0.1521,0.152,0.1498,0.1499,0,0,0,0,0,0,0.1593,0.1581,0.1601,0.16,0.16,0.1593,0.1593,0.1597,0.1567,0.1565,0.1596,0.1596,0.1549,0.1545,0.154,0.1553,0.1523,0.152,0.1519,0.1497,0.1498,0.1499,0,0,0,0,0,0,0.1592,0.1594,0.1601,0.1594,0.1594,0.1594,0.1598,0.1597,0.1611,0.1573,0.1569,0.1615,0.155,0.1543,0.1536,0.1549,0.1519,0.1517,0.1496,0.1497,0.1499,0.1548,0,0,0,0,0,0,0.1591,0.1594,0.1608,0.1595,0.1595,0.1606,0.1598,0.1596,0.1614,0.1615,0.1587,0.1582,0.155,0.154,0.1533,0.1545,0.1515,0.1495,0.1496,0.1498,0.1545,0.1551,0.1556,0,0,0,0,0,0.159,0.1599,0.1609,0.1612,0.1612,0.1606,0.1605,0.1603,0.1615,0.1618,0.1606,0.1584,0.1547,0.1538,0.153,0.1541,0.1494,0.1496,0.1498,0.1543,0.155,0.1556,0,0,0,0,0,0,0.159,0.1599,0.161,0.1621,0.1624,0.1607,0.1614,0.162,0.1613,0.1621,0.1589,0.1582,0.1579,0.1558,0.155,0.1543,0.1519,0.152,0.1556,0.1563,0.1568,0.1566,0.1512,0,0,0,0,0,0.1601,0.1612,0.1616,0.1627,0.1633,0.1632,0.1636,0.1638,0.1629,0.1628,0.1611,0.1595,0.1577,0.1571,0.1547,0.1541,0.1554,0.1547,0.1552,0.1557,0.1552,0.1592,0.1601,0.1506,0.1506,0.1506,0,0,0.1604,0.1612,0.1619,0.1629,0.1632,0.163,0.1635,0.1647,0.1644,0.1622,0.1618,0.161,0.158,0.1571,0.1569,0.1559,0.1597,0.156,0.1564,0.1556,0.1595,0.1605,0.1613,0.1508,0.1507,0.1507,0,0,0.1607,0.1626,0.1635,0.1639,0.1656,0.1648,0.1661,0.1661,0.1664,0.1662,0.1649,0.1655,0.1623,0.1608,0.1594,0.1617,0.1622,0.1619,0.1643,0.1683,0.1691,0.1698,0.1753,0.1765,0.1623,0.1624,0.1624,0,0.1615,0.1626,0.1636,0.1643,0.1646,0.166,0.1663,0.166,0.1658,0.166,0.1668,0.1651,0.1636,0.1624,0.1638,0.1628,0.1661,0.1619,0.1691,0.1698,0.1705,0.1759,0.1771,0.1626,0.1626,0.1626,0.1625,0,0.1614,0.1632,0.1637,0.1647,0.1648,0.1657,0.1656,0.1662,0.1675,0.1674,0.1683,0.1675,0.1666,0.1672,0.166,0.1696,0.171,0.1693,0.1675,0.1717,0.1772,0.1784,0.163,0.1629,0.1628,0.1628,0,0,0.161,0.1634,0.164,0.1649,0.1656,0.1655,0.1652,0.1651,0.1656,0.1671,0.168,0.1677,0.1696,0.1684,0.1686,0.1727,0.1818,0.174,0.1741,0.1796,0.1932,0.1876,0.1884,0.1823,0.1825,0.1826,0.1962,0,0.1612,0.1631,0.1634,0.1642,0.165,0.1652,0.1646,0.1648,0.1652,0.1662,0.1679,0.1686,0.1693,0.1709,0.175,0.1789,0.1847,0.1783,0.1881,0.1884,0.1829,0.1894,0.1603,0.1693,0.1973,0.1975,0.1977,0,0.1607,0.1623,0.1641,0.1651,0.1654,0.1661,0.1659,0.1653,0.166,0.1669,0.1686,0.1694,0.1742,0.1751,0.1855,0.1821,0.1886,0.1927,0.1933,0.1864,0.1848,0.169,0.1704,0.1996,0.1994,0.1993,0.1992,0,0.1599,0.1622,0.1641,0.1645,0.1657,0.1669,0.1673,0.167,0.1665,0.1684,0.1693,0.1734,0.177,0.1847,0.1923,0.1907,0.205,0.203,0.2044,0.2042,0.1801,0.1774,0.2123,0.2123,0.2122,0.2122,0.2122,0,0.1587,0.1603,0.1652,0.1662,0.1682,0.1687,0.1695,0.1697,0.1701,0.1697,0.1712,0.1724,0.1801,0.1872,0.1946,0.2032,0.2073,0.2062,0.2072,0.1813,0.1787,0.204,0.2028,0.2127,0.2126,0.2125,0.2124,0,0.1562,0.16,0.1624,0.1666,0.1683,0.1698,0.1711,0.1705,0.1718,0.1716,0.1726,0.1748,0.1833,0.1909,0.2038,0.2056,0.2144,0.2169,0.1869,0.184,0.2111,0.2101,0.22,0.2199,0.2198,0.2198,0.2197,0,0.1541,0.156,0.1628,0.1648,0.1675,0.17,0.1708,0.172,0.1708,0.1723,0.1722,0.179,0.1826,0.1976,0.1966,0.2065,0.2168,0.1898,0.18,0.2118,0.2119,0.211,0.2101,0.1518,0.1512,0.1507,0.1503,0,0.1494,0.1541,0.1565,0.1619,0.1653,0.1666,0.1687,0.1683,0.1687,0.1698,0.1723,0.176,0.1805,0.1711,0.1795,0.1832,0.1847,0.1803,0.2209,0.1542,0.1486,0.1483,0.1495,0.1459,0.1464,0.1467,0.1469,0.1471,0.146,0.1472,0.1525,0.1571,0.1606,0.1627,0.1627,0.1639,0.1641,0.1613,0.1668,0.1598,0.1535,0.1476,0.1483,0.1469,0.1633,0.1557,0.1568,0.1585,0.1479,0.1424,0.1369,0.1373,0.1376,0.1379,0.1381,0,0.1394,0.143,0.1463,0.1514,0.1529,0.1588,0.1595,0.1564,0.1566,0.15,0.1503,0.1203,0.1118,0.1103,0.0954,0.1011,0.0986,0.1023,0.0903,0.0945,0.0983,0.0844,0.0568,0.0566,0.0565,0.0564,0,0,0.1357,0.1368,0.1397,0.1424,0.1477,0.1487,0.1501,0.1463,0.1383,0.1211,0.1057,0.1069,0.1001,0.0717,0.0705,0.0598,0.0797,0.0598,0.123,0.1127,0.1164,0.1252,0.1081,0,0,0,0,0]},{"header":{"parameterUnit":"m.s-1","parameterCategory":2,"la1":30.2991,"la2":30.254,"lo1":-89.0895,"lo2":-89.0444,"dy":0.0017,"dx":0.0017,"nx":28,"ny":28,"refTime":"2023-03-27T15:00:00:Z","depth":"2","parameterNumber":3,"parameterNumberName":"V-component_of_CURRENTS"},"data":[0,0,0,0,0,0,0,0,0,0,0,0,0,0,0,0,0,0,0,0,0,0,0,0,0,0,0,0,0,0,0,0,0,0,0,0,0,0,0,0,0,0,0,0,0,0,0,0,0,0,0,0,0,0,0,0,0,0,-0.0417,-0.0418,0,-0.0497,-0.0498,-0.0499,-0.0589,-0.059,-0.0591,-0.0592,-0.0726,-0.0729,-0.0731,0,0,0,0,0,0,0,0,0,0,0,0,0,-0.0357,-0.0358,-0.0417,-0.0418,-0.0418,-0.0497,-0.0498,-0.0499,-0.0588,-0.059,-0.0591,-0.0592,-0.0725,-0.0728,-0.0731,0,0,0,0,0,0,0,0,0,0,0,0,0,-0.0407,-0.0358,-0.0417,-0.0471,-0.0476,-0.0496,-0.0498,-0.05,-0.0588,-0.059,-0.0591,-0.0593,-0.0724,-0.0728,-0.0732,-0.0722,0,0,-0.0743,-0.0745,0,0,0,0,0,0,0,0,-0.0404,-0.0409,-0.0462,-0.0467,-0.0473,-0.0532,-0.0526,-0.0576,-0.0588,-0.0548,-0.0592,-0.0594,-0.0664,-0.0672,-0.0686,-0.0729,-0.0734,-0.0744,-0.0746,-0.0748,-0.0749,0,0,0,0,0,0,0,-0.04,-0.0406,-0.0451,-0.0462,-0.0469,-0.0496,-0.0505,-0.0536,-0.0598,-0.0552,-0.0558,-0.0562,-0.0668,-0.0682,-0.069,-0.0736,-0.0744,-0.0747,-0.0749,-0.0751,-0.0855,-0.0856,0,0,0,0,0,0,-0.0383,-0.0403,-0.0448,-0.0453,-0.0439,-0.0495,-0.0506,-0.0514,-0.0597,-0.061,-0.0561,-0.0566,-0.0675,-0.0686,-0.0695,-0.075,-0.0748,-0.0751,-0.0754,-0.0855,-0.0855,-0.0856,0,0,0,0,0,0,-0.0381,-0.0386,-0.0445,-0.0428,-0.0437,-0.0494,-0.0503,-0.0514,-0.0564,-0.0603,-0.0618,-0.0602,-0.0677,-0.069,-0.0749,-0.0753,-0.0753,-0.0757,-0.0854,-0.0855,-0.0855,-0.0819,0,0,0,0,0,0,-0.0379,-0.0385,-0.0405,-0.0427,-0.0437,-0.0473,-0.0501,-0.0514,-0.0561,-0.057,-0.0643,-0.0655,-0.0679,-0.0743,-0.0753,-0.0759,-0.076,-0.0853,-0.0854,-0.0855,-0.082,-0.0819,-0.0818,0,0,0,0,0,-0.0377,-0.0391,-0.0406,-0.0412,-0.0456,-0.0473,-0.0481,-0.0529,-0.0561,-0.0581,-0.0634,-0.0655,-0.0756,-0.0747,-0.0758,-0.0765,-0.0853,-0.0854,-0.0855,-0.082,-0.0819,-0.0818,0,0,0,0,0,0,-0.0382,-0.0402,-0.0419,-0.0441,-0.0462,-0.0487,-0.0518,-0.0542,-0.0599,-0.0623,-0.0664,-0.068,-0.073,-0.0755,-0.0745,-0.0798,-0.0806,-0.0809,-0.0776,-0.0775,-0.0774,-0.0749,-0.0763,0,0,0,0,0,-0.0387,-0.0406,-0.0421,-0.0444,-0.0456,-0.0492,-0.0514,-0.054,-0.058,-0.0609,-0.0659,-0.0707,-0.0735,-0.0764,-0.0798,-0.0831,-0.0816,-0.0842,-0.0841,-0.084,-0.0828,-0.0809,-0.0804,-0.0859,-0.0859,-0.0859,0,0,-0.0397,-0.041,-0.0424,-0.0447,-0.0474,-0.0489,-0.0512,-0.0547,-0.0568,-0.0613,-0.0679,-0.071,-0.0744,-0.0778,-0.0802,-0.0806,-0.0814,-0.0841,-0.084,-0.0829,-0.0809,-0.0803,-0.0798,-0.086,-0.086,-0.086,0,0,-0.0414,-0.0437,-0.0457,-0.0469,-0.0501,-0.0512,-0.0526,-0.0566,-0.0598,-0.0645,-0.0676,-0.0707,-0.0776,-0.0783,-0.0796,-0.0809,-0.0808,-0.0833,-0.0809,-0.079,-0.0785,-0.078,-0.0736,-0.0728,-0.0833,-0.0833,-0.0833,0,-0.0428,-0.0451,-0.0466,-0.0482,-0.0496,-0.0523,-0.0541,-0.0564,-0.0621,-0.0636,-0.067,-0.073,-0.0768,-0.0769,-0.0779,-0.0803,-0.0789,-0.0809,-0.0785,-0.078,-0.0776,-0.0733,-0.0724,-0.0831,-0.0831,-0.0831,-0.0832,0,-0.045,-0.0475,-0.0488,-0.0513,-0.0526,-0.0547,-0.0562,-0.0591,-0.0631,-0.0647,-0.0678,-0.0712,-0.074,-0.0755,-0.0777,-0.0762,-0.0759,-0.0782,-0.0781,-0.0767,-0.0724,-0.0715,-0.0829,-0.0829,-0.083,-0.083,0,0,-0.0468,-0.0497,-0.0507,-0.0518,-0.0545,-0.0552,-0.0574,-0.0589,-0.0594,-0.0643,-0.0642,-0.0686,-0.0696,-0.071,-0.0727,-0.0715,-0.0672,-0.0739,-0.0739,-0.0681,-0.0611,-0.0523,-0.0505,-0.0695,-0.0694,-0.0693,-0.0586,0,-0.0489,-0.0517,-0.0526,-0.0552,-0.0565,-0.0575,-0.0583,-0.0597,-0.0613,-0.0616,-0.0627,-0.0636,-0.0678,-0.068,-0.0677,-0.0667,-0.0651,-0.0697,-0.0647,-0.0644,-0.0555,-0.0492,-0.0476,-0.0373,-0.0578,-0.0576,-0.0575,0,-0.0512,-0.0525,-0.0556,-0.0559,-0.0566,-0.0581,-0.0581,-0.0587,-0.0578,-0.0586,-0.0583,-0.0588,-0.0565,-0.061,-0.057,-0.06,-0.0608,-0.0602,-0.0599,-0.0521,-0.0539,-0.0425,-0.0349,-0.056,-0.0561,-0.0562,-0.0563,0,-0.0518,-0.0542,-0.0568,-0.0574,-0.0583,-0.0596,-0.0596,-0.059,-0.0571,-0.0553,-0.0525,-0.0516,-0.0484,-0.0494,-0.048,-0.053,-0.042,-0.0489,-0.0411,-0.0404,-0.038,-0.0372,-0.0467,-0.0467,-0.0468,-0.0468,-0.0468,0,-0.0525,-0.0547,-0.0575,-0.0589,-0.0594,-0.06,-0.0589,-0.0584,-0.0546,-0.0493,-0.0506,-0.0444,-0.0457,-0.04,-0.0429,-0.0351,-0.0375,-0.0373,-0.0361,-0.0365,-0.0358,-0.0526,-0.0535,-0.0464,-0.0465,-0.0466,-0.0466,0,-0.0528,-0.0554,-0.0581,-0.0603,-0.0603,-0.0609,-0.0574,-0.0543,-0.0517,-0.0437,-0.0418,-0.0361,-0.0276,-0.0261,-0.0232,-0.0247,-0.0211,-0.0193,-0.0173,-0.016,-0.0229,-0.0237,-0.0096,-0.0091,-0.0088,-0.0085,-0.0082,0,-0.0524,-0.0544,-0.059,-0.0591,-0.0606,-0.0599,-0.0573,-0.0541,-0.0487,-0.0374,-0.0319,-0.0215,-0.0116,-0.0006,0.0004,0.004,-0.0072,0.0039,-0.006,-0.0182,-0.0186,-0.02,-0.0213,-0.0016,-0.0013,-0.001,-0.0008,0,-0.0504,-0.0548,-0.057,-0.0582,-0.0576,-0.0534,-0.0493,-0.0439,-0.0364,-0.0272,-0.0129,-0.0038,0.0085,0.0168,0.0225,0.0204,0.0038,0.009,-0.0025,-0.0106,-0.0096,-0.0104,-0.0121,0.0012,0.001,0.0009,0.0008,0.0007,-0.0493,-0.0509,-0.0548,-0.0551,-0.0533,-0.0459,-0.0394,-0.0314,-0.0191,-0.0017,0.0037,0.0208,0.0269,0.0411,0.0366,0.0271,0.0252,0.017,0.0157,0.0144,0.0141,0.0157,0.0313,0.0313,0.0313,0.0312,0.0312,0,-0.0444,-0.048,-0.0488,-0.0483,-0.0436,-0.0432,-0.0319,-0.0228,-0.0058,0.0106,0.0263,0.0409,0.0509,0.0481,0.0395,0.036,0.0278,0.0289,0.0176,0.016,0.0145,0.0134,0.0308,0.0308,0.0307,0.0306,0,0,-0.0411,-0.042,-0.043,-0.0373,-0.036,-0.0255,-0.0171,-0.0052,0.0078,0.0288,0.0429,0.0642,0.0617,0.0573,0.0493,0.0372,0.0254,0.0341,0.036,0.0222,0.0205,0.011,0.0083,0,0,0,0,0]}],[{"header":{"parameterUnit":"m.s-1","parameterCategory":2,"la1":30.2991,"la2":30.254,"lo1":-89.0895,"lo2":-89.0444,"dy":0.0017,"dx":0.0017,"nx":28,"ny":28,"refTime":"2023-03-27T15:00:00:Z","depth":"4","parameterNumber":2,"parameterNumberName":"U-component_of_CURRENTS"},"data":[0,0,0,0,0,0,0,0,0,0,0,0,0,0,0,0,0,0,0,0,0,0,0,0,0,0,0,0,0,0,0,0,0,0,0,0,0,0,0,0,0,0,0,0,0,0,0,0,0,0,0,0,0,0,0,0,0,0,-0.0378,-0.0378,0,-0.0362,-0.0362,-0.0362,-0.0364,-0.0364,-0.0365,-0.0365,-0.0278,-0.0275,-0.0273,0,0,0,0,0,0,0,0,0,0,0,0,0,-0.038,-0.038,-0.0378,-0.0378,-0.0378,-0.0362,-0.0362,-0.0362,-0.0364,-0.0364,-0.0365,-0.0365,-0.0279,-0.0276,-0.0273,0,0,0,0,0,0,0,0,0,0,0,0,0,-0.0372,-0.038,-0.0378,-0.0378,-0.0378,-0.0362,-0.0362,-0.0362,-0.0364,-0.0364,-0.0365,-0.0366,-0.028,-0.0276,-0.0272,-0.0235,0,0,-0.026,-0.0258,0,0,0,0,0,0,0,0,-0.0372,-0.0371,-0.0378,-0.0378,-0.0378,-0.0367,-0.0331,-0.0316,-0.0364,-0.0368,-0.0365,-0.0366,-0.0302,-0.0296,-0.0291,-0.0231,-0.0228,-0.0259,-0.0257,-0.0255,-0.0254,0,0,0,0,0,0,0,-0.0373,-0.0372,-0.037,-0.0378,-0.0378,-0.0369,-0.0368,-0.0328,-0.0329,-0.0367,-0.0368,-0.0368,-0.0301,-0.0295,-0.0288,-0.0226,-0.026,-0.0256,-0.0254,-0.0252,-0.0029,-0.0026,0,0,0,0,0,0,-0.0378,-0.0372,-0.0371,-0.037,-0.0378,-0.0369,-0.0368,-0.0369,-0.0331,-0.0327,-0.0368,-0.0368,-0.0301,-0.0293,-0.0285,-0.0152,-0.0255,-0.0252,-0.0249,-0.0033,-0.0028,-0.0025,0,0,0,0,0,0,-0.0379,-0.0378,-0.0372,-0.0372,-0.0371,-0.0368,-0.0369,-0.0368,-0.0367,-0.0332,-0.0327,-0.0368,-0.0301,-0.0291,-0.0246,-0.0152,-0.025,-0.0246,-0.0037,-0.0031,-0.0026,0.0059,0,0,0,0,0,0,-0.0379,-0.0379,-0.0381,-0.0373,-0.0371,-0.0361,-0.0368,-0.0368,-0.0367,-0.0368,-0.033,-0.0323,-0.0301,-0.0252,-0.0242,-0.0148,-0.0243,-0.0041,-0.0034,-0.0028,0.0052,0.0067,0.008,0,0,0,0,0,-0.0379,-0.0379,-0.0381,-0.0381,-0.0374,-0.0361,-0.0358,-0.0358,-0.0366,-0.036,-0.0334,-0.0324,-0.0201,-0.0248,-0.0236,-0.0138,-0.0044,-0.0036,-0.0029,0.0046,0.0064,0.0079,0,0,0,0,0,0,-0.0384,-0.0379,-0.0381,-0.0381,-0.0371,-0.0362,-0.0358,-0.0359,-0.0336,-0.0333,-0.0308,-0.0298,-0.0212,-0.0196,-0.0248,-0.0052,-0.0108,-0.0098,-0.0055,-0.0038,-0.0024,-0.002,-0.024,0,0,0,0,0,-0.0385,-0.0385,-0.0375,-0.0377,-0.0371,-0.0366,-0.0362,-0.0357,-0.0337,-0.033,-0.0298,-0.0243,-0.0167,-0.0128,-0.0076,0.0011,-0.0028,0.0092,0.0106,0.0117,0.0131,0.0113,0.0124,0.0001,0.0001,0.0001,0,0,-0.039,-0.0387,-0.0388,-0.0378,-0.0372,-0.0352,-0.0364,-0.0353,-0.0313,-0.032,-0.0255,-0.0208,-0.0139,-0.0031,0.0013,-0.0008,0.0133,0.0127,0.0136,0.0144,0.0122,0.0133,0.0143,0.0007,0.0006,0.0005,0,0,-0.0393,-0.0393,-0.0389,-0.0376,-0.0363,-0.0347,-0.0345,-0.0322,-0.0287,-0.0215,-0.0194,-0.012,-0.0007,0.0055,0.0108,0.0223,0.0195,0.0278,0.0365,0.0347,0.0356,0.0363,0.032,0.0322,0.0298,0.0298,0.0298,0,-0.0397,-0.0389,-0.0385,-0.0372,-0.0351,-0.0344,-0.0318,-0.0277,-0.0236,-0.0181,-0.0178,-0.0002,0.0041,0.0179,0.0249,0.0254,0.0232,0.0292,0.036,0.0367,0.0372,0.0326,0.0328,0.0303,0.0302,0.0302,0.0301,0,-0.039,-0.0381,-0.0375,-0.0349,-0.0323,-0.0303,-0.0246,-0.0195,-0.0138,-0.0085,0.0057,0.0117,0.0232,0.0282,0.032,0.0426,0.0391,0.0361,0.0305,0.0389,0.0336,0.0336,0.031,0.0309,0.0307,0.0306,0,0,-0.0398,-0.0374,-0.0372,-0.0353,-0.0304,-0.0283,-0.0188,-0.0094,-0.0026,0.007,0.0168,0.0339,0.0379,0.0441,0.0488,0.0502,0.0531,0.0483,0.0479,0.0416,0.0484,0.0434,0.0428,0.0516,0.0517,0.0517,0.0424,0,-0.0388,-0.0366,-0.0341,-0.0298,-0.0273,-0.0212,-0.0125,-0.0032,0.0066,0.0159,0.0271,0.0381,0.0441,0.051,0.0546,0.0528,0.0539,0.0558,0.0433,0.0429,0.0355,0.043,0.0521,0.0424,0.0424,0.0424,0.0424,0,-0.0372,-0.0359,-0.0321,-0.0255,-0.0235,-0.0193,-0.0053,0.0031,0.0179,0.0262,0.0397,0.0461,0.057,0.0566,0.0596,0.0613,0.0583,0.0544,0.0538,0.0464,0.0381,0.0328,0.0423,0.0423,0.0423,0.0423,0.0423,0,-0.0368,-0.0333,-0.0302,-0.0284,-0.021,-0.0147,-0.0074,0.0074,0.0162,0.0324,0.0386,0.0514,0.057,0.0571,0.0554,0.0589,0.0496,0.0509,0.0426,0.0419,0.0445,0.0438,0.0501,0.0501,0.0501,0.0502,0.0502,0,-0.0347,-0.0329,-0.0302,-0.0286,-0.0222,-0.0142,-0.0032,0.007,0.0207,0.0289,0.0441,0.048,0.0578,0.0553,0.0532,0.047,0.0479,0.0455,0.0406,0.0485,0.0484,0.0443,0.0437,0.0498,0.0499,0.05,0.05,0,-0.0344,-0.0331,-0.0307,-0.0246,-0.0223,-0.0162,-0.0037,0.0038,0.0187,0.0287,0.0342,0.0459,0.0461,0.048,0.0433,0.043,0.0355,0.0312,0.0365,0.0316,0.0304,0.0305,0.0269,0.0267,0.0265,0.0263,0.0262,0,-0.0336,-0.0327,-0.0305,-0.0291,-0.0265,-0.0176,-0.012,0.0025,0.0087,0.0236,0.0246,0.032,0.0386,0.0271,0.0294,0.0249,0.0247,0.0212,0.034,0.0332,0.0287,0.0291,0.0294,0.0259,0.0258,0.0258,0.0257,0,-0.0325,-0.0332,-0.0321,-0.0307,-0.0272,-0.0228,-0.0146,-0.0111,0.0046,0.0145,0.0185,0.0234,0.0222,0.0229,0.0196,0.0151,0.0253,0.0195,0.0201,0.0321,0.0319,0.0277,0.0282,0.0251,0.0252,0.0253,0.0253,0,-0.0326,-0.0326,-0.0327,-0.0308,-0.0288,-0.0269,-0.0222,-0.0164,-0.0084,0.0082,0.0042,0.0116,0.0173,0.0166,0.0091,0.01,0.0153,0.0171,0.0181,0.0188,0.0215,0.0204,0.007,0,0,0,0,0,-0.0312,-0.0317,-0.0319,-0.03,-0.0293,-0.0281,-0.024,-0.0193,-0.0092,-0.007,0.0021,0.0013,0.0055,0.0042,0.0049,0.0064,0.0134,0.0069,0.0155,0.0215,0.0223,0.0267,0,0,0,0,0,0,-0.0306,-0.0309,-0.0322,-0.0307,-0.0298,-0.0282,-0.0266,-0.0208,-0.0193,-0.0091,-0.0096,0.0006,0.0004,0.0059,0.0048,0.0055,0.0106,0.0108,0.0107,0.0211,0.0218,0.0224,0.0272,0,0,0,0,0]},{"header":{"parameterUnit":"m.s-1","parameterCategory":2,"la1":30.2991,"la2":30.254,"lo1":-89.0895,"lo2":-89.0444,"dy":0.0017,"dx":0.0017,"nx":28,"ny":28,"refTime":"2023-03-27T15:00:00:Z","depth":"4","parameterNumber":3,"parameterNumberName":"V-component_of_CURRENTS"},"data":[0,0,0,0,0,0,0,0,0,0,0,0,0,0,0,0,0,0,0,0,0,0,0,0,0,0,0,0,0,0,0,0,0,0,0,0,0,0,0,0,0,0,0,0,0,0,0,0,0,0,0,0,0,0,0,0,0,0,0.0495,0.0495,0,0.0519,0.0519,0.0519,0.0538,0.0538,0.0539,0.0539,0.0692,0.0696,0.07,0,0,0,0,0,0,0,0,0,0,0,0,0,0.0472,0.0472,0.0495,0.0495,0.0496,0.0519,0.0519,0.0519,0.0538,0.0538,0.0539,0.0539,0.0691,0.0696,0.07,0,0,0,0,0,0,0,0,0,0,0,0,0,0.0487,0.0472,0.0495,0.0508,0.051,0.0519,0.0519,0.0519,0.0538,0.0538,0.0539,0.0539,0.069,0.0695,0.0701,0.0728,0,0,0.0719,0.0721,0,0,0,0,0,0,0,0,0.0486,0.0487,0.0506,0.0507,0.0509,0.0527,0.0567,0.0596,0.0538,0.0526,0.0539,0.0539,0.0649,0.0658,0.0659,0.0736,0.0742,0.0719,0.0723,0.0725,0.0727,0,0,0,0,0,0,0,0.0485,0.0486,0.0503,0.0506,0.0508,0.0516,0.0518,0.0572,0.0587,0.0527,0.0529,0.0533,0.0651,0.0653,0.0663,0.0745,0.0719,0.0724,0.0728,0.073,0.0839,0.0838,0,0,0,0,0,0,0.0483,0.0485,0.0503,0.0504,0.0499,0.0516,0.0518,0.052,0.0584,0.0593,0.0533,0.0534,0.0643,0.0656,0.0669,0.075,0.0725,0.073,0.0734,0.084,0.0839,0.0838,0,0,0,0,0,0,0.0482,0.0484,0.0502,0.0496,0.0499,0.0516,0.0517,0.052,0.0542,0.0586,0.0598,0.0553,0.0644,0.0661,0.0728,0.0754,0.0733,0.0738,0.084,0.0839,0.0839,0.0884,0,0,0,0,0,0,0.0481,0.0483,0.0498,0.0496,0.0499,0.0517,0.0517,0.052,0.0543,0.0545,0.0608,0.0621,0.0646,0.0719,0.0733,0.0762,0.0743,0.0841,0.084,0.0839,0.0883,0.0885,0.0886,0,0,0,0,0,0.048,0.0495,0.0498,0.0501,0.0513,0.0517,0.052,0.0532,0.0543,0.0553,0.0596,0.062,0.0721,0.0724,0.0741,0.0772,0.0841,0.084,0.0839,0.0882,0.0884,0.0886,0,0,0,0,0,0,0.049,0.0498,0.0501,0.0517,0.0522,0.0521,0.0541,0.0544,0.0582,0.0601,0.0636,0.0652,0.0717,0.0728,0.073,0.079,0.0777,0.0779,0.0804,0.0806,0.0808,0.0807,0.0748,0,0,0,0,0,0.0499,0.0515,0.0514,0.0529,0.0536,0.0542,0.0552,0.0559,0.0584,0.06,0.0654,0.0693,0.0719,0.0751,0.0787,0.0838,0.0814,0.0856,0.0857,0.0859,0.0864,0.0807,0.0804,0.0834,0.0834,0.0834,0,0,0.0505,0.0514,0.0522,0.0533,0.0544,0.0558,0.055,0.0572,0.06,0.0616,0.07,0.0719,0.0733,0.0783,0.081,0.0803,0.0842,0.0857,0.0859,0.0863,0.0805,0.0802,0.08,0.0833,0.0833,0.0834,0,0,0.0518,0.0537,0.0551,0.0556,0.0575,0.0587,0.0597,0.0623,0.0654,0.0723,0.0723,0.0746,0.0836,0.0821,0.0826,0.0853,0.0854,0.0871,0.0889,0.0834,0.0831,0.0828,0.0818,0.0814,0.0869,0.0869,0.0869,0,0.0528,0.0546,0.0556,0.0565,0.0591,0.0603,0.063,0.0652,0.0703,0.0734,0.0765,0.0823,0.0844,0.0842,0.0852,0.0861,0.0845,0.089,0.0837,0.0834,0.083,0.082,0.0815,0.0871,0.0871,0.0871,0.087,0,0.0536,0.0561,0.0574,0.06,0.0628,0.0654,0.0686,0.073,0.0791,0.0811,0.0865,0.0877,0.0905,0.09,0.0902,0.0877,0.0882,0.0849,0.0838,0.083,0.082,0.0814,0.0874,0.0873,0.0873,0.0872,0,0,0.0538,0.0575,0.0583,0.0603,0.0658,0.0672,0.0741,0.0792,0.0825,0.0884,0.0922,0.0947,0.0952,0.0952,0.0932,0.088,0.0853,0.0868,0.0864,0.087,0.077,0.0719,0.0707,0.0815,0.0814,0.0813,0.0782,0,0.0552,0.0576,0.0612,0.0661,0.0683,0.0734,0.0798,0.0843,0.0901,0.0941,0.0933,0.0977,0.0969,0.0992,0.0936,0.0865,0.0836,0.0867,0.0767,0.0765,0.0728,0.0697,0.0808,0.0778,0.0776,0.0775,0.0775,0,0.0561,0.0576,0.0629,0.0698,0.0719,0.0773,0.0871,0.0933,0.0977,0.1021,0.1037,0.1034,0.0996,0.0986,0.0876,0.0902,0.0859,0.0796,0.0793,0.0723,0.07,0.0778,0.0763,0.0764,0.0765,0.0766,0.0766,0,0.055,0.0601,0.0655,0.0671,0.0744,0.0815,0.0899,0.0973,0.1036,0.1086,0.1106,0.1065,0.106,0.0972,0.0876,0.0887,0.073,0.0723,0.0641,0.0639,0.0679,0.0682,0.0653,0.0653,0.0654,0.0654,0.0654,0,0.0556,0.0582,0.066,0.0673,0.0763,0.0845,0.0966,0.1022,0.1108,0.1146,0.1164,0.1127,0.1054,0.0958,0.0874,0.0731,0.0738,0.0641,0.0612,0.0702,0.0708,0.0676,0.068,0.0652,0.0653,0.0653,0.0653,0,0.0527,0.057,0.0615,0.0711,0.0762,0.0844,0.1027,0.1077,0.1181,0.122,0.1245,0.1185,0.1056,0.0958,0.0798,0.0733,0.0597,0.0556,0.0684,0.0664,0.0559,0.0565,0.0472,0.047,0.0468,0.0466,0.0465,0,0.0509,0.0529,0.0637,0.0686,0.0748,0.0891,0.0976,0.1115,0.1157,0.1213,0.1181,0.1114,0.1049,0.0767,0.0688,0.0543,0.052,0.05,0.0513,0.0551,0.0533,0.0542,0.055,0.0461,0.0461,0.046,0.046,0,0.0459,0.0512,0.0547,0.0664,0.076,0.0855,0.0986,0.0997,0.1123,0.1201,0.1087,0.1001,0.0848,0.0687,0.0598,0.0485,0.0529,0.0479,0.0483,0.0495,0.0537,0.0523,0.0534,0.0453,0.0454,0.0454,0.0455,0,0.0437,0.0458,0.0537,0.0631,0.0738,0.0794,0.0861,0.0892,0.0951,0.1005,0.0943,0.0844,0.0821,0.0654,0.0539,0.0453,0.0441,0.0432,0.0438,0.0446,0.0444,0.0494,0.0362,0,0,0,0,0,0.0434,0.0452,0.0507,0.06,0.0694,0.0771,0.0846,0.0896,0.0974,0.087,0.0927,0.0781,0.0637,0.0558,0.0451,0.0509,0.0437,0.0387,0.043,0.0414,0.0422,0.0418,0,0,0,0,0,0,0.0433,0.0479,0.0483,0.0551,0.062,0.0716,0.0755,0.0789,0.0731,0.0795,0.0676,0.0768,0.0582,0.0687,0.0448,0.0435,0.045,0.036,0.0358,0.0409,0.0416,0.0423,0.0422,0,0,0,0,0]}]]